Regional Weather Roundup
Issued by NWS

Home | Current Version | Previous Version | Text Only | Print | Product List | Glossary On
Versions: 1 2 3 4 5 6 7 8 9 10 11 12 13 14 15 16 17 18 19 20 21 22 23 24 25 26 27 28 29 30 31 32 33 34 35 36 37 38 39 40 41 42 43 44 45 46 47 48 49 50
000
ASUS44 KOUN 180610
RWROK

WEATHER ROUNDUP FOR OKLAHOMA
NATIONAL WEATHER SERVICE NORMAN OK
100 AM CDT THU SEP 18 2014

NOTE: "FAIR" INDICATES FEW OR NO CLOUDS BELOW 12,000 FEET WITH NO
      SIGNIFICANT WEATHER AND/OR OBSTRUCTIONS TO VISIBILITY.

OKZ001>007-009>012-014-015-017-180700-
NORTHWEST OKLAHOMA AND THE PANHANDLE

CITY           SKY/WX    TMP DP  RH WIND       PRES   REMARKS
GAGE           CLOUDY    72  64  76 SW10      29.92S
6HR MIN TEMP:  71; 6HR MAX TEMP:  83;

ENID/WOODRING  CLOUDY    72  66  83 SE6       29.87S
$$

OKZ016-021>023-033>039-044-045-180700-
SOUTHWEST OKLAHOMA

CITY           SKY/WX    TMP DP  RH WIND       PRES   REMARKS
LAWTON/REGL    CLOUDY    76  69  79 SE3       29.91R
6HR MIN TEMP:  76; 6HR MAX TEMP:  89;

FREDERICK      CLOUDY    77  70  79 S7        29.88R
CLINTON        CLOUDY    77  67  71 SW7       29.93S
HOBART         CLOUDY    77  68  73 SW10      29.91S
ALTUS AFB      CLOUDY    77  68  73 SW6       29.91S
$$

OKZ018>020-024>031-180700-
CENTRAL OKLAHOMA

CITY           SKY/WX    TMP DP  RH WIND       PRES   REMARKS
OKLAHOMA CITY  CLOUDY    74  64  71 SE6       29.91S
6HR MIN TEMP:  73; 6HR MAX TEMP:  85;

OKC/WILEY POST CLOUDY    76  64  66 S8        29.91R
OKC/TINKER AFB MOCLDY    74  65  74 S8        29.91F
STILLWATER     CLOUDY    77  71  82 S9        29.88F
GUTHRIE        CLOUDY    78  67  68 S8        29.89F
$$

OKZ008-013-054>072-180700-
NORTHEAST OKLAHOMA

CITY           SKY/WX    TMP DP  RH WIND       PRES   REMARKS
TULSA          CLOUDY    73  66  78 S13       29.88F
6HR MIN TEMP:  73; 6HR MAX TEMP:  89;

TULSA/JONES    CLOUDY    72  66  81 S7        29.90F
PONCA CITY     CLOUDY    79  71  76 S8        29.87S
BARTLESVILLE   CLOUDY    73  68  84 S7        29.88F
MUSKOGEE       CLOUDY    67  67 100 S5        29.91F
$$

OKZ032-040>043-046>053-073>077-180700-
SOUTH CENTRAL/SOUTHEAST OKLAHOMA

CITY           SKY/WX    TMP DP  RH WIND       PRES   REMARKS
ARDMORE/DWNTWN CLOUDY    73  70  88 CALM      29.92S
MCALESTER      CLOUDY    70  65  84 CALM      29.94F
$$



USA.gov is the U.S. government's official web portal to all federal, state and local government web resources and services.